Location: Newark
(44.2764°N, 5.2753°E)
Time: 02:58:54
(UTC+00:00)

X-37B - Pass Details

Date: 10 March 2021
Orbit: 380 x 394 km, 45.0° (Epoch: 07 April)

Event Time Altitude Azimuth Distance (km) Brightness Sun altitude
Rises 18:37:08 0° 197° (SSW) 2,259 4.6 -11.2°
Reaches altitude 10° 18:40:32 10° 158° (SSE) 1,414 3.1 -11.8°
Enters shadow 18:41:14 11° 145° (SE) 1,370 3.0 -12.0°
